Volver al catálogo

STARLINK-6185

ActivoComunicacionesVLEO
NORAD 56901·PAYLOAD·🇺🇸 United States

Lanzado Jun 12, 2023 desde Cape Canaveral Space Force Station

Loading…

Próximos Pases (próximas 24 horas)

TLE

ActualizadoSource: CelesTrak SupGP

Época: Sep 14, 2026, 21:14 UTC

1 56901C 23083AB  26257.88520833  .00012747  00000+0  46178-3 0  2572
2 56901  43.0009  93.4601 0001919 263.3186  95.0097 15.27566617    18

Sigue STARLINK-6185 en tiempo real con AllMySat

Download on the App Store